1316563232926,2.66313
1316563292926,2.67193
1316563352926,2.66980
1316563412926,2.70037
1316563472926,2.68706
1316563532926,2.69177
1316563592926,2.66733
1316563652926,2.65793
1316563712926,2.65864
1316563772926,2.65347
1316563832926,2.66107
1316563892926,2.68626
1316563952926,2.67855
1316564012926,2.67033
1316564072926,2.65251
1316564132926,2.65929
1316564192926,2.67426
1316564252926,2.68137
1316564312926,2.67166
1316564372926,2.64601
1316564432926,2.67414
1316564492926,2.66428
1316564552926,2.67806
1316564612926,2.67085
1316564672926,2.65257
1316564732926,2.65810
1316564792926,2.65402
1316564852926,2.66110
1316564912926,2.65807
1316564972926,2.64847
1316565032926,2.67143
1316565092926,2.66946
1316565152926,2.65980
1316565212926,2.65519
1316565272926,2.67746
1316565332926,2.67102
1316565392926,2.69615
1316565452926,2.68229
1316565512926,2.67090
1316565572926,2.67556
1316565632926,2.67067
1316565692926,2.68090
1316565752926,2.67334
1316565812926,2.67084
1316565872926,2.68969
1316565932926,2.66751
1316565992926,2.68212
1316566052926,2.69810
1316566112926,2.65272
1316566172926,2.65371
1316566232926,2.67916
1316566292926,2.66349
1316566352926,2.66336
1316566412926,2.66805
1316566472926,2.65917
1316566532926,2.69935
1316566592926,2.67507
1316566652926,2.67180
1316566712926,2.66229
1316566772926,2.67210
1316566832937,2.68067
1316566892937,2.67696
1316566952937,2.68419
1316567012937,2.68060
1316567072937,2.69003
1316567132937,2.70809
1316567192937,2.68710
1316567252937,2.70322
1316567312937,2.70046
1316567372937,2.68543
1316567432937,2.70681
1316567492937,2.70410
1316567552937,2.68342
1316567612937,2.69970
1316567672937,2.71917
1316567732937,2.71203
1316567792937,2.70327
1316567852937,2.69631
1316567912937,2.69896
1316567972937,2.71372
1316568032937,2.70292
1316568092937,2.74304
1316568152937,2.72666
1316568212937,2.72455
1316568272937,2.73506
1316568332937,2.73011
1316568392937,2.73655
1316568452937,2.72233
1316568512937,2.72090
1316568572937,2.71820
1316568632937,2.70926
1316568692937,2.72474
1316568752937,2.92855
1316568812937,2.74566
1316568872937,2.73542
1316568932937,2.71870
1316568992937,2.70488
1316569052937,2.72287
1316569112937,2.70812
1316569172937,2.73242
1316569232937,2.72114
1316569292937,2.72619
1316569352937,2.72285
1316569412937,2.71276
1316569472937,2.72556
1316569532937,2.71208
1316569592937,2.71986
1316569652937,2.73128
1316569712937,2.70451
1316569772937,2.73852
1316569832937,2.72748
1316569892937,2.72078
1316569952937,2.72169
1316570012937,2.73230
1316570072937,2.73419
1316570132937,2.72781
1316570192937,2.71276
1316570252937,2.74285
1316570312937,2.73129
1316570372937,2.72495
1316570432948,2.71266
1316570492948,2.72999
1316570552948,2.71955
1316570612948,2.72215
1316570672948,2.71167
1316570732948,2.71092
1316570792948,2.72217
1316570852948,2.72337
1316570912948,2.72651
1316570972948,2.69832
1316571032948,2.71564
1316571092948,2.70302
1316571152948,2.69469
1316571212948,2.70531
1316571272948,2.71174
1316571332948,2.69778
1316571392948,2.69046
1316571452948,2.70788
1316571512948,2.69357
1316571572948,2.69306
1316571632948,2.69940
1316571692948,2.71256
1316571752948,2.67517
1316571812948,2.59715
1316571872948,2.71492
1316571932948,2.70020
1316571992948,2.68813
1316572052948,2.69377
1316572112948,2.67867
1316572172948,2.69862
1316572232948,2.70120
1316572292948,2.69323
1316572352948,2.68251
1316572412948,2.68445
1316572472948,2.66976
1316572532948,2.68503
1316572592948,2.67522
1316572652948,2.68631
1316572712948,2.70003
1316572772948,2.69033
1316572832948,2.69651
1316572892948,2.68599
1316572952948,2.68059
1316573012948,2.68504
1316573072948,2.68513
1316573132948,2.79258
1316573192948,2.68943
1316573252948,2.66671
1316573312948,2.70407
1316573372948,2.67968
1316573432948,2.67725
1316573492948,2.68364
1316573552948,2.67117
1316573612948,2.67079
1316573672948,2.67599
1316573732948,2.67171
1316573792948,2.68302
1316573852948,2.66270
1316573912948,2.68555
1316573972948,2.68266
1316574032958,2.67559
1316574092958,2.67479
1316574152958,2.69290
1316574212958,2.66829
1316574272958,2.65739
1316574332958,2.68614
1316574392958,2.67116
1316574452958,2.67485
1316574512958,2.66503
1316574572958,2.66718
1316574632958,2.66948
1316574692958,2.67452
1316574752958,2.66479
1316574812958,2.66435
1316574872958,2.65735
1316574932958,2.66133
1316574992958,2.67626
1316575052958,2.67346
1316575112958,2.67003
1316575172958,2.66648
1316575232958,2.66723
1316575292958,2.67366
1316575352958,2.67521
1316575412958,2.66510
1316575472958,2.66508
1316575532958,2.67160
1316575592958,2.66687
1316575652958,2.68322
1316575712958,2.66422
1316575772958,2.67893
1316575832958,2.66671
1316575892958,2.66083
1316575952958,2.67418
1316576012958,2.67433
1316576072958,2.68645
1316576132958,2.69122
1316576192958,2.67262
1316576252958,2.67423
1316576312958,2.67568
1316576372958,2.66278
1316576432958,2.67704
1316576492958,2.67245
1316576552958,2.68840
1316576612958,2.68080
1316576672958,2.67105
1316576732958,2.69850
1316576792958,2.67105
1316576852958,2.69147
1316576912958,2.68167
1316576972958,2.67301
1316577032958,2.68268
1316577092958,2.66876
1316577152958,2.67107
1316577212958,2.68587
1316577272958,2.68355
1316577332958,2.67627
1316577392958,2.66495
1316577452958,2.68158
1316577512958,2.68218
1316577572958,2.66642
1316577632969,2.69590
1316577692969,2.67907
1316577752969,2.66535
1316577812969,2.66531
1316577872969,2.67441
1316577932969,2.68445
1316577992969,2.66636
1316578052969,2.68806
1316578112969,2.65538
1316578172969,2.66109
1316578232969,2.66670
1316578292969,2.65060
1316578352969,2.66339
1316578412969,2.65873
1316578472969,2.69476
1316578532969,2.67183
1316578592969,2.67752
1316578652969,2.66672
1316578712969,2.68921
1316578772969,2.67388
1316578832969,2.64407
1316578892969,2.67762
1316578952969,2.66815
1316579012969,2.68020
1316579072969,2.65399
1316579132969,2.64789
1316579192969,2.65878
1316579252969,2.67289
1316579312969,2.65472
1316579372969,2.67801
1316579432969,2.67256
1316579492969,2.66916
1316579552969,2.68738
1316579612969,2.66045
1316579672969,2.66448
1316579732969,2.66605
1316579792969,2.67534
1316579852969,2.67087
1316579912969,2.68187
1316579972969,2.67046
1316580032969,2.67078
1316580092969,2.68007
1316580152969,2.68315
1316580212969,2.67345
1316580272969,2.68153
1316580332969,2.68838
1316580392969,2.70186
1316580452969,2.67387
1316580512969,2.69613
1316580572969,2.68698
1316580632969,2.70209
1316580692969,2.70416
1316580752969,2.69587
1316580812969,2.68401
1316580872969,2.68351
1316580932969,2.69228
1316580992969,2.67854
1316581052969,2.69992
1316581112969,2.69252
1316581172969,2.69042
1316581232979,2.69320
1316581292979,2.69744
1316581352979,2.69084
1316581412979,2.70268
1316581472979,2.68281
1316581532979,2.67891
1316581592979,2.67934
1316581652979,2.68847
1316581712979,2.69419
1316581772979,2.69450
1316581832979,2.69228
1316581892979,2.26075
1316582432979,2.68659
1316582492979,2.65698
1316582552979,2.67860
1316582612979,2.68044
1316582672979,2.68042
1316582732979,2.67890
1316582792979,2.68281
1316582852979,2.66516
1316582912979,2.69977
1316582972979,2.66955
1316583032979,2.68456
1316583092979,2.69590
1316583152979,2.72146
1316583212979,2.67679
1316583272979,2.63096
1316583332979,2.66138
1316583392979,2.68584
1316583452979,2.67309
1316583512979,2.68431
1316583572979,2.66030
1316583632979,2.66990
1316583692979,2.65772
1316583752979,2.66503
1316583812979,2.66008
1316583872979,2.66810
1316583932979,2.66208
1316583992979,2.67101
1316584052979,2.69326
1316584112979,2.68141
1316584172979,2.68383
1316584232979,2.65085
1316584292979,2.69143
1316584352979,2.66592
1316584412979,2.69177
1316584472979,2.67324
1316584532979,2.66753
1316584592979,2.66629
1316584652979,2.66120
1316584712979,2.68225
1316584772979,2.66609
1316584832990,2.68734
1316584892990,2.66890
1316584952990,2.67971
1316585012990,2.67383
1316585072990,2.67517
1316585132990,2.69185
1316585192990,2.65887
1316585252990,2.62895
1316598513020,2.69989
1316598573020,2.67744
1316598633020,2.68974
1316598693020,2.69350
1316598753020,2.68420
1316598813020,2.67815
1316598873020,2.68140
1316598933020,2.68994
1316598993020,2.68313
1316599053020,2.68889
1316599113020,2.67484
1316599173020,2.66590
1316599233031,2.69344
1316599293031,2.68695
1316599353031,2.68846
1316599413031,2.68229
1316599473031,2.66386
1316599533031,2.66968
1316599593031,2.68659
1316599653031,2.68823
1316599713031,2.66370
1316599773031,2.67942
1316599833031,2.66997
1316599893031,2.68952
1316599953031,2.69187
1316600013031,2.69052
1316600073031,2.69513
1316600133031,2.68247
1316600193031,2.68175
1316600253031,2.68310
1316600313031,2.67534
1316600373031,2.68264
1316600433031,2.70313
1316600493031,2.68003
1316600553031,2.68475
1316600613031,2.67070
1316600673031,2.67175
1316600733031,2.68803
1316600793031,2.69890
1316600853031,2.68070
1316600913031,2.66209
1316600973031,2.68895
1316601033031,2.66349
1316601093031,2.67760
1316601153031,2.68934
1316601213031,2.69412
1316601273031,2.67445
1316601333031,2.66260
1316601393031,2.66998
1316601453031,2.67918
1316601513031,2.68827
1316601573031,2.66655
1316601633031,2.69684
1316601693031,2.66633
1316601753031,2.67399
1316601813031,2.68336
1316601873031,2.65570
1316601933031,2.69699
1316601993031,2.68342
1316602053031,2.67734
1316602113031,2.67825
1316602173031,2.68331
1316602233031,2.67592
1316602293031,2.65408
1316602353031,2.68519
1316602413031,2.68345
1316602473031,2.66732
1316602533031,2.67202
1316602593031,2.66919
1316602653031,2.67005
1316602713031,2.65941
1316602773031,2.69520
1316602833042,2.65865
1316602893042,2.66505
1316602953042,2.66443
1316603013042,2.66911
1316603073042,2.67946
1316603133042,2.66488
1316603193042,2.69989
1316603253042,2.67489
1316603313042,2.67241
1316603373042,2.65937
1316603433042,2.68627
1316603493042,2.66582
1316603553042,2.67797
1316603613042,2.68219
1316603673042,2.69498
1316603733042,2.74046
1316603793042,2.69589
1316603853042,2.68795
1316603913042,2.68505
1316603973042,2.69776
1316604033042,2.78335
1316604093042,2.79780
1316604153042,2.72849
1316604213042,2.74224
1316604273042,2.73068
1316604333042,2.74590
1316604393042,2.72487
1316604453042,2.70966
1316604513042,2.72062
1316604573042,2.69734
1316604633042,2.72238
1316604693042,2.72358
1316604753042,2.72281
1316604813042,2.70478
1316604873042,2.69097
1316604933042,2.70249
1316604993042,2.69545
1316605053042,2.70432
1316605113042,2.70522
1316605173042,2.71035
1316605233042,2.70710
1316605293042,2.71375
1316605353042,2.71828
1316605413042,2.71708
1316605473042,2.70194
1316605533042,2.70386
1316605593042,2.70304
1316605653042,2.68560
1316605713042,2.69152
1316605773042,2.69164
1316605833042,2.70460
1316605893042,2.69699
1316605953042,2.69906
1316606013042,2.68998
1316606073042,2.67683
1316606133042,2.70607
1316606193042,2.70244
1316606253042,2.67256
1316606313042,2.67224
1316606373042,2.69439
1316606433054,2.69688
1316606493054,2.69069
1316606553054,2.69763
1316606613054,2.69190
1316606673054,2.68855
1316606733054,2.69199
1316606793054,2.68533
1316606853054,2.69425
1316606913054,2.72242
1316606973054,2.68937
1316607033054,2.68957
1316607093054,2.67678
1316607153054,2.69560
1316607213054,2.66934
1316607273054,2.70746
1316607333054,2.71521
1316607393054,2.71071
1316607453054,2.70305
1316607513054,2.72294
1316607573054,2.75925
1316607633054,2.72904
1316607693054,2.72673
1316607753054,2.75189
1316607813054,2.75513
1316607873054,2.76183
1316607933054,2.75975
1316607993054,2.74327
1316608053054,2.76655
1316608113054,2.75718
1316608173054,2.75616
1316608233054,2.75391
1316608293054,2.77719
1316608353054,2.75026
1316608413054,2.76053
1316608473054,2.75576
1316608533054,2.74795
1316608593054,2.76500
1316608653054,2.77244
1316608713054,2.76328
1316608773054,2.75043
1316608833054,2.75540
1316608893054,2.75197
1316608953054,2.75254
1316609013054,2.76077
1316609073054,2.77176
1316609133054,2.76755
1316609193054,2.76459
1316609253054,2.77324
1316609313054,2.77953
1316609373054,2.77985
1316609433054,2.77335
1316609493054,2.78846
1316609553054,2.79781
1316609613054,2.78969
1316609673054,2.79096
1316609733054,2.81385
1316609793054,2.80478
1316609853054,2.81594
1316609913054,2.83330
1316609973054,2.81603
1316610033066,2.83705
1316610093066,2.82109
1316610153066,2.82296
1316610213066,2.75617
1316610273066,2.81011
1316610333066,2.80916
1316610393066,2.79465
1316610453066,2.79298
1316610513066,2.79318
1316610573066,2.79611
1316610633066,2.79366
1316610693066,2.77607
1316610753066,2.85259
1316610813066,2.78093
1316610873066,2.77413
1316610933066,2.77499
1316610993066,2.74844
1316611053066,2.76291
1316611113066,2.76196
1316611173066,2.74867
1316611233066,2.75695
1316611293066,2.75694
1316611353066,2.75586
1316611413066,2.76924
1316611473066,2.74140
1316611533066,2.76034
1316611593066,2.74666
1316611653066,2.75850
1316611713066,2.75012
1316611773066,2.73467
1316611833066,2.74067
1316611893066,2.75332
1316611953066,2.73937
1316612013066,2.76450
1316612073066,2.74364
1316612133066,2.74699
1316612193066,2.74619
1316612253066,2.72545
1316612313066,2.74943
1316612373066,2.73573
1316612433066,2.73280
1316612493066,2.71568
1316612553066,2.72911
1316612613066,2.75528
1316612673066,2.73385
1316612733066,2.72779
1316612793066,2.71283
1316612853066,2.72389
1316612913066,2.74331
1316612973066,2.72457
1316613033066,2.72473
1316613093066,2.72339
1316613153066,2.74662
1316613213066,2.74169
1316613273066,2.74217
1316613333066,2.74198
1316613393066,2.73485
1316613453066,2.72949
1316613513066,2.73665
1316613573066,2.74008
1316613633078,2.72882
1316613693078,2.73588
1316613753078,2.73223
1316613813078,2.73814
1316613873078,2.73277
1316613933078,2.74898
1316613993078,2.74143
1316614053078,2.74039
1316614113078,2.75018
1316614173078,2.73066
1316614233078,2.74113
1316614293078,2.74635
1316614353078,2.74105
1316614413078,2.73789
1316614473078,2.75639
1316614533078,2.73430
1316614593078,2.75591
1316614653078,2.74953
1316614713078,2.75188
1316614773078,2.74456
1316614833078,2.76347
1316614893078,2.74718
1316614953078,2.75295
1316615013078,2.75190
1316615073078,2.74847
1316615133078,2.75842
1316615193078,2.74515
1316615253078,2.76470
1316615313078,2.74946
1316615373078,2.75110
1316615433078,2.76078
1316615493078,2.74732
1316615553078,2.76937
1316615613078,2.73036
1316615673078,2.75463
1316615733078,2.74683
1316615793078,2.76065
1316615853078,2.75724
1316615913078,2.75309
1316615973078,2.77573
1316616033078,2.76084
1316616093078,2.77626
1316616153078,2.76803
1316616213078,2.76169
1316616273078,2.77655
1316616333078,2.77077
1316616393078,2.77444
1316616453078,2.76236
1316616513078,2.77040
1316616573078,2.74591
1316616633078,2.77174
1316616693078,2.77376
1316616753078,2.76102
1316616813078,2.77536
1316616873078,2.73513
1316616933078,2.74758
1316616993078,2.76236
1316617053078,2.75035
1316617113078,2.80032
1316617173078,2.76962
1316617233090,2.75534
1316617293090,2.74647
1316617353090,2.75674
1316617413090,2.75703
1316617473090,2.74176
1316617533090,2.74368
1316617593090,2.74689
1316617653090,2.73708
1316617713090,2.73400
1316617773090,2.74342
1316617833090,2.75198
1316617893090,2.74013
1316617953090,2.75146
1316618013090,2.73775
1316618073090,2.73594
1316618133090,2.72432
1316618193090,2.74553
1316618253090,2.73172
1316618313090,2.73259
1316618373090,2.74891
1316618433090,2.73112
1316618493090,2.74122
1316618553090,2.74174
1316618613090,2.73397
1316618673090,2.73459
1316618733090,2.74395
1316618793090,2.73040
1316618853090,2.74532
1316618913090,2.73543
1316618973090,2.72422
1316619033090,2.74256
1316619093090,2.72198
1316619153090,2.74922
1316619213090,2.75339
1316619273090,2.73383
1316619333090,2.75375
1316619393090,2.76423
1316619453090,2.73215
1316619513090,2.74205
1316619573090,2.73924
1316619633090,2.75551
1316619693090,2.74643
1316619753090,2.73805
1316619813090,2.76098
1316619873090,2.75248
1316619933090,2.75887
1316619993090,2.75371
1316620053090,2.74302
1316620113090,2.75933
1316620173090,2.74155
1316620233090,2.73266
1316620293090,2.75599
1316620353090,2.75189
1316620413090,2.74342
1316620473090,2.73045
1316620533090,2.72687
1316620593090,2.75226
1316620653090,2.73890
1316620713090,2.73512
1316620773090,2.75764
1316620833103,2.72462
1316620893103,2.75878
1316620953103,2.75498
1316621013103,2.75488
1316621073103,2.75753
1316621133103,2.73712
1316621193103,2.75029
1316621253103,2.74880
1316621313103,2.76020
1316621373103,2.73567
1316621433103,2.74506
1316621493103,2.73380
1316621553103,2.74806
1316621613103,2.76145
1316621673103,2.76326
1316621733103,2.75318
1316621793103,2.73567
1316621853103,2.74488
1316621913103,2.74192
1316621973103,2.74422
1316622033103,2.78070
1316622093103,2.75178
1316622153103,2.75381
1316622213103,2.74570
1316622273103,2.74263
1316622333103,2.74266
1316622393103,2.75115
1316622453103,2.75880
1316622513103,2.75879
1316622573103,2.75810
1316622633103,2.79214
1316622693103,2.76703
1316622753103,2.74761
1316622813103,2.75332
1316622873103,2.76210
1316622933103,2.75762
1316622993103,2.74390
1316623053103,2.74364
1316623113103,2.74290
1316623173103,2.75445
1316623233103,2.73163
1316623293103,2.75572
1316623353103,2.74302
1316623413103,2.75135
1316623473103,2.75248
1316623533103,2.74361
1316623593103,2.74750
1316623653103,2.73762
1316623713103,2.71569
1316623773103,2.75859
1316623833103,2.77875
1316623893103,2.75681
1316623953103,2.75357
1316624013103,2.75176
1316624073103,2.75551
1316624133103,2.75317
1316624193103,2.73040
1316624253103,2.72208
1316624313103,2.72511
1316624373103,2.70607
1316624433116,2.74720
1316624493116,2.76194
1316624553116,2.73852
1316624613116,2.76633
1316624673116,2.73867
1316624733116,2.73773
1316624793116,2.74370
1316624853116,2.74608
1316624913116,2.74751
1316624973116,2.74887
1316625033116,2.74385
1316625093116,2.74674
1316625153116,2.74396
1316625213116,2.74000
1316625273116,2.73770
1316625333116,2.74191
1316625393116,2.75243
1316625453116,2.75589
1316625513116,2.74850
1316625573116,2.75981
1316625633116,2.77292
1316625693116,2.74875
1316625753116,2.77047
1316625813116,2.75231
1316625873116,2.74507
1316625933116,2.73586
1316625993116,2.76997
1316626053116,2.77746
1316626113116,2.75914
1316626173116,2.75165
1316626233116,2.74024
1316626293116,2.76761
1316626353116,2.74450
1316626413116,2.76291
1316626473116,2.75454
1316626533116,2.76624
1316626593116,2.76881
1316626653116,2.75063
1316626713116,2.76677
1316626773116,2.74231
1316626833116,2.75029
1316626893116,2.74611
1316626953116,2.73525
1316627013116,2.74947
1316627073116,2.77195
1316627133116,2.74610
1316627193116,2.75882
1316627253116,2.74735
1316627313116,2.73151
1316627373116,2.74147
1316627433116,2.73449
1316627493116,2.74945
1316627553116,2.73785
1316627613116,2.72428
1316627673116,2.75108
1316627733116,2.74629
1316627793116,2.73568
1316627853116,2.75251
1316627913116,2.75062
1316627973116,2.75779
1316628033128,2.75014
1316628093128,2.74714
1316628153128,2.74510
1316628213128,2.73770
1316628273128,2.73483
1316628333128,2.76435
1316628393128,2.77532
1316628453128,2.75651
1316628513128,2.76390
1316628573128,2.77562
1316628633128,2.74473
1316628693128,2.74430
1316628753128,2.75457
1316628813128,2.75310
1316628873128,2.76288
1316628933128,2.74144
1316628993128,2.75363
1316629053128,2.75180
1316629113128,2.77374
1316629173128,2.76899
1316629233128,2.75402
1316629293128,2.75289
1316629353128,2.77838
1316629413128,2.76582
1316629473128,2.76512
1316629533128,2.77161
1316629593128,2.76757
1316629653128,2.76809
1316629713128,2.74312
1316629773128,2.76806
1316629833128,2.77093
1316629893128,2.75106
1316629953128,2.76998
1316630013128,2.76514
1316630073128,2.74865
1316630133128,2.76521
1316630193128,2.75647
1316630253128,2.75580
1316630313128,2.76489
1316630373128,2.75247
1316630433128,2.76429
1316630493128,2.78225
1316630553128,2.76075
1316630613128,2.74663
1316630673128,2.73292
1316630733128,2.75317
1316630793128,2.72564
1316630853128,2.74527
1316630913128,2.72978
1316630973128,2.75696
1316631033128,2.74972
1316631093128,2.74993
1316631153128,2.73325
1316631213128,2.75261
1316631273128,2.72359
1316631333128,2.75506
1316631393128,2.72289
1316631453128,2.74448
1316631513128,2.74260
1316631573128,2.74303
1316631633141,2.73188
1316631693141,2.73383
1316631753141,2.73321
1316631813141,2.73718
1316631873141,2.70943
1316631933141,2.73232
1316631993141,2.73211
1316632053141,2.73894
1316632113141,2.76139
1316632173141,2.74615
1316632233141,2.73293
1316632293141,2.74971
1316632353141,2.74561
1316632413141,2.74271
1316632473141,2.72365
1316632533141,2.72382
1316632593141,2.73303
1316632653141,2.71974
1316632713141,2.72304
1316632773141,2.72787
1316632833141,2.71724
1316632893141,2.73589
1316632953141,2.72265
1316633013141,2.72868
1316633073141,2.72524
1316633133141,2.72157
1316633193141,2.83454
1316633253141,2.74403
1316633313141,2.73101
1316633373141,2.73773
1316633433141,2.71346
1316633493141,2.72475
1316633553141,2.72695
1316633613141,2.72059
1316633673141,2.72281
1316633733141,2.72929
1316633793141,2.72385
1316633853141,2.73786
1316633913141,2.72299
1316633973141,2.71660
1316634033141,2.71303
1316634093141,2.69722
1316634153141,2.71821
1316634213141,2.71989
1316634273141,2.73265
1316634333141,2.71436
1316634393141,2.71907
1316634453141,2.71312
1316634513141,2.70407
1316634573141,2.72066
1316634633141,2.71461
1316634693141,2.71833
1316634753141,2.71219
1316634813141,2.67405
1316634873141,2.70166
1316634933141,2.68854
1316634993141,2.68960
1316635053141,2.71403
1316635113141,2.68190
1316635173141,2.68951
1316635233153,2.69077
1316635293153,2.67892
1316635353153,2.68304
1316635413153,2.68076
1316635473153,2.69023
1316635533153,2.68983
1316635593153,2.68826
1316635653153,2.67999
1316635713153,2.68147
1316635773153,2.68602
1316635833153,2.67488
1316635893153,2.67232
1316635953153,2.68437
1316636013153,2.67653
1316636073153,2.68669
1316636133153,2.69259
1316636193153,2.67737
1316636253153,2.67150
1316636313153,2.67884
1316636373153,2.66951
1316636433153,2.67869
1316636493153,2.67414
1316636553153,2.67014
1316636613153,2.67576
1316636673153,2.67121
1316636733153,2.67946
1316636793153,2.67540
1316636853153,2.64324
1316636913153,2.64902
1316636973153,2.64872
1316637033153,2.66056
1316637093153,2.67057
1316637153153,2.67936
1316637213153,2.66901
1316637273153,2.67680
1316637333153,2.66750
1316637393153,2.67133
1316637453153,2.67000
1316637513153,2.66902
1316637573153,2.67287
1316637633153,2.70049
1316637693153,2.69332
1316637753153,2.68562
1316637813153,2.68529
1316637873153,2.67447
1316637933153,2.67124
1316637993153,2.67656
1316638053153,2.69151
1316638113153,2.68478
1316638173153,2.67106
1316638233153,2.70762
1316638293153,2.66375
1316638353153,2.67014
1316638413153,2.65084
1316638473153,2.67383
1316638533153,2.64793
1316638593153,2.67332
1316638653153,2.67220
1316638713153,2.67137
1316638773153,2.67856
1316638833165,2.67386
1316638893165,2.66365
1316638953165,2.64248
1316639013165,2.64811
1316639073165,2.67796
1316639133165,2.63957
1316639193165,2.64299
1316639253165,2.63699
1316639313165,2.65483
1316639373165,2.65159
1316639433165,2.65046
1316639493165,2.66224
1316639553165,2.65530
1316639613165,2.65394
1316639673165,2.64334
1316639733165,2.65141
1316639793165,2.65971
1316639853165,2.67105
1316639913165,2.65689
1316639973165,2.66091
1316640033165,2.67438
1316640093165,2.66165
1316640153165,2.65772
1316640213165,2.66043
1316640273165,2.67083
1316640333165,2.66994
1316640393165,2.67016
1316640453165,2.66115
1316640513165,2.66305
1316640573165,2.65975
1316640633165,2.67844
1316640693165,2.67815
1316640753165,2.67025
1316640813165,2.66556
1316640873165,2.66339
1316640933165,2.65323
1316640993165,2.67277
1316641053165,2.65906
1316641113165,2.66270
1316641173165,2.65974
1316641233165,2.69095
1316641293165,2.67316
1316641353165,2.66084
1316641413165,2.60651
1316641473165,2.59256
1316641533165,2.67931
1316641593165,2.67352
1316641653165,2.63486
1316641713165,2.64157
1316641773165,2.65172
1316641833165,2.64301
1316641893165,2.66509
1316641953165,2.66720
1316642013165,2.64752
1316642073165,2.63396
1316642133165,2.63527
1316642193165,2.64879
1316642253165,2.64476